| time (UTC) | temp C | wind direction | speed KPH | gust KPH | rain 1hr cm | rain 24hr cm | rain mn cm | humidity % | barometer mb |
| 20260506003023 | 23 | 238 | 4.8 | 12.9 | 0.00 | 0.03 | 0.03 | 43 | 1008.2 |
| 20260506001526 | 23 | 233 | 3.2 | 11.3 | 0.00 | 0.03 | 0.03 | 42 | 1008.1 |
| 20260506000013 | 23 | 237 | 6.4 | 22.5 | 0.00 | 0.03 | 0.03 | 41 | 1008.1 |
| 20260505233021 | 24 | 254 | 9.7 | 22.5 | 0.00 | 0.03 | 0.03 | 40 | 1007.9 |
| 20260505231525 | 24 | 237 | 6.4 | 20.9 | 0.00 | 0.03 | 0.03 | 40 | 1007.9 |
| 20260505224512 | 25 | 234 | 11.3 | 29.0 | 0.00 | 0.03 | 0.03 | 36 | 1007.6 |
| 20260505223018 | 26 | 216 | 14.5 | 27.4 | 0.00 | 0.03 | 0.03 | 1007.6 | |
| 20260505220011 | 26 | 254 | 16.1 | 32.2 | 0.00 | 0.03 | 0.03 | 36 | 1007.5 |
| 20260505213021 | 26 | 201 | 8.0 | 20.9 | 0.00 | 0.03 | 0.03 | 37 | 1007.5 |
| 20260505210025 | 26 | 210 | 11.3 | 25.7 | 0.00 | 0.03 | 0.03 | 36 | 1007.3 |
| 20260505204510 | 27 | 200 | 14.5 | 29.0 | 0.00 | 0.03 | 0.03 | 35 | 1007.3 |
| 20260505201519 | 26 | 236 | 12.9 | 35.4 | 0.00 | 0.03 | 0.03 | 35 | 1007.4 |
| 20260505193012 | 26 | 247 | 14.5 | 30.6 | 0.00 | 0.03 | 0.03 | 35 | 1007.6 |
| 20260505191516 | 27 | 221 | 11.3 | 29.0 | 0.00 | 0.03 | 0.03 | 34 | 1007.5 |
| 20260505190029 | 26 | 219 | 14.5 | 32.2 | 0.00 | 0.03 | 0.03 | 35 | 1007.8 |
| 20260505184526 | 27 | 257 | 9.7 | 33.8 | 0.00 | 0.03 | 0.03 | 34 | 1007.9 |
| 20260505183009 | 27 | 238 | 9.7 | 25.7 | 0.00 | 0.03 | 0.03 | 36 | 1008.2 |
| 20260505180022 | 26 | 214 | 12.9 | 29.0 | 0.00 | 0.03 | 0.03 | 34 | 1008.4 |
| 20260505174525 | 26 | 203 | 14.5 | 33.8 | 0.00 | 0.03 | 0.03 | 35 | 1008.8 |
| 20260505173036 | 26 | 229 | 11.3 | 24.1 | 0.00 | 0.03 | 0.03 | 40 | 1008.9 |
| 20260505170019 | 26 | 248 | 11.3 | 22.5 | 0.00 | 0.03 | 0.03 | 40 | 1009.1 |
| 20260505164523 | 25 | 281 | 11.3 | 25.7 | 0.00 | 0.03 | 0.03 | 42 | 1009.2 |
| 20260505163024 | 25 | 260 | 11.3 | 25.7 | 0.00 | 0.03 | 0.03 | 42 | 1009.6 |
| 20260505161526 | 25 | 246 | 9.7 | 24.1 | 0.00 | 0.03 | 0.03 | 42 | 1009.6 |
| 20260505153025 | 24 | 243 | 12.9 | 20.9 | 0.00 | 0.03 | 0.03 | 45 | 1010.0 |
| 20260505151533 | 23 | 194 | 8.0 | 22.5 | 0.00 | 0.03 | 0.03 | 44 | 1010.0 |
| 20260505124518 | 17 | 246 | 4.8 | 17.7 | 0.00 | 0.03 | 0.03 | 66 | 1010.6 |
| 20260505101525 | 11 | 207 | 0.0 | 3.2 | 0.00 | 0.03 | 0.03 | 89 | 1010.0 |
| 20260505100026 | 11 | 102 | 0.0 | 0.0 | 0.03 | 0.03 | 0.03 | 88 | 1009.8 |
| 20260505094528 | 12 | 102 | 0.0 | 0.0 | 0.03 | 0.03 | 0.03 | 86 | 1009.9 |
| 20260505093018 | 12 | 102 | 0.0 | 1.6 | 0.03 | 0.03 | 0.03 | 84 | 1010.0 |
| 20260505091527 | 13 | 158 | 0.0 | 3.2 | 0.03 | 0.03 | 0.03 | 78 | 1009.7 |
| 20260505090036 | 14 | 188 | 0.0 | 3.2 | 0.00 | 0.00 | 0.00 | 69 | 1010.0 |
| 20260505084525 | 14 | 194 | 1.6 | 4.8 | 0.00 | 0.00 | 0.00 | 67 | 1009.5 |
| 20260505083029 | 15 | 325 | 1.6 | 6.4 | 0.00 | 0.00 | 0.00 | 65 | 1009.7 |
| 20260505081518 | 15 | 219 | 4.8 | 9.7 | 0.00 | 0.00 | 0.00 | 64 | 1009.2 |
| 20260505080021 | 15 | 264 | 4.8 | 11.3 | 0.00 | 0.00 | 0.00 | 63 | 1009.2 |
| 20260505074524 | 15 | 227 | 6.4 | 14.5 | 0.00 | 0.00 | 0.00 | 63 | 1009.3 |
| 20260505073043 | 15 | 202 | 4.8 | 12.9 | 0.00 | 0.00 | 0.00 | 63 | 1009.4 |
| 20260505071519 | 15 | 223 | 3.2 | 8.0 | 0.00 | 0.00 | 0.00 | 62 | 1009.4 |
| 20260505070021 | 15 | 218 | 4.8 | 11.3 | 0.00 | 0.00 | 0.00 | 62 | 1009.4 |
| 20260505064536 | 15 | 201 | 4.8 | 9.7 | 0.00 | 0.00 | 0.00 | 61 | 1009.3 |
| 20260505063026 | 15 | 235 | 4.8 | 11.3 | 0.00 | 0.00 | 0.00 | 61 | 1009.3 |
| 20260505061540 | 15 | 222 | 4.8 | 11.3 | 0.00 | 0.00 | 0.00 | 60 | 1009.4 |
| 20260505060016 | 15 | 187 | 4.8 | 12.9 | 0.00 | 0.00 | 0.00 | 59 | 1009.3 |
| 20260505054514 | 15 | 236 | 6.4 | 14.5 | 0.00 | 0.00 | 0.00 | 58 | 1009.3 |
| 20260505053015 | 15 | 257 | 6.4 | 12.9 | 0.00 | 0.00 | 0.00 | 56 | 1009.3 |
| 20260505051514 | 15 | 230 | 6.4 | 12.9 | 0.00 | 0.00 | 0.00 | 55 | 1009.4 |
| 20260505034517 | 16 | 216 | 4.8 | 16.1 | 0.00 | 0.00 | 0.00 | 51 | 1009.1 |
| 20260505033020 | 16 | 265 | 4.8 | 9.7 | 0.00 | 0.00 | 0.00 | 51 | 1009.2 |
| 20260505031537 | 16 | 169 | 3.2 | 8.0 | 0.00 | 0.00 | 0.00 | 50 | 1009.3 |
| 20260505024530 | 16 | 251 | 3.2 | 11.3 | 0.00 | 0.00 | 0.00 | 49 | 1009.3 |
| 20260505023020 | 16 | 252 | 3.2 | 6.4 | 0.00 | 0.00 | 0.00 | 49 | 1009.5 |
| 20260505021520 | 16 | 228 | 3.2 | 8.0 | 0.00 | 0.00 | 0.00 | 49 | 1009.6 |
| 20260505020028 | 17 | 188 | 1.6 | 9.7 | 0.00 | 0.00 | 0.00 | 48 | 1009.7 |
| 20260505014523 | 17 | 159 | 1.6 | 6.4 | 0.00 | 0.00 | 0.00 | 48 | 1009.6 |
| 20260505013019 | 17 | 229 | 1.6 | 6.4 | 0.00 | 0.00 | 0.00 | 47 | 1009.6 |
| 20260505011530 | 17 | 227 | 3.2 | 14.5 | 0.00 | 0.00 | 0.00 | 47 | 1009.6 |
| 20260505010019 | 17 | 221 | 1.6 | 6.4 | 0.00 | 0.00 | 0.00 | 47 | 1009.5 |
| 20260505004539 | 17 | 250 | 3.2 | 8.0 | 0.00 | 0.00 | 0.00 | 46 | 1009.4 |